User: anonymous   Login
Location: Cerroniocc
(13.7547°S, 72.0222°W)
Time: 02:21:00
(UTC+00:00)
Language:

Palapa 6 Rocket - Orbit

View from above orbital plane
View from above orbital plane
View from above satellite
View from above satellite

Ground track
Ground track

The orbit data is extracted from the following two-line orbital elements,

1 20571U 90034B   20272.24414378 +.00000734 +00000-0 +62442-4 0  9993
2 20571 022.7436 217.8112 0506917 090.2169 275.6361 14.12449002562211
Epoch (UTC): 28 September 2020 05:51:34
Eccentricity: 0.0506917
inclination: 22.7436°
perigee height: 484 km
apogee height: 1217 km
right ascension of ascending node: 217.8112°
argument of perigee: 90.2169°
revolutions per day: 14.12449002
mean anomaly at epoch: 275.6361°
orbit number at epoch: 56221

The dashed part of the orbit path shows where the satellite is in the earth's shadow,  

DLR